Погода в Жемчужной

Россия / Мурманская область     66°55′21″N   32°12′33″E
темп.,
°C
ветер,
м/с
пор.,
м/с
влажн.,
%
обл.,
%
осадки,
мм/ч
давл.,
гПа
погр.,
м
8 марта, пн
пн800:00−16ююв1197100 0.2 101330
03:00−20ю119699 0.3 101520
06:00−20юз1197100 0.1 101624
09:00−19юз0096100 0.1 101735
12:00−16ююв1192100 0.0 1018245
15:00−15ююв118998 0.0 1019307
18:00−20ююв119776 0.0 101920
21:00−23зюз1110044 0.0 102120
9 марта, вт
вт900:00−24з1110027 0.0 102220
03:00−25зсз119929 0.0 102220
06:00−24сз22950 0.0 102320
09:00−22сз22930 0.0 102342
12:00−14сз24830 0.0 1024199
15:00−10сз24820 0.0 1024290
18:00−13ссз23870 0.0 102423
21:00−16сз238729 0.0 102627
10 марта, ср
ср1000:00−16сз2287100 0.0 102621
03:00−17сз228499 0.0 102620
06:00−19зсз228054 0.0 102620
09:00−19зсз128327 0.0 102720
12:00−12з13830 0.0 1026244
15:00−11юз24847 0.0 1025399
18:00−14юз24898 0.0 102371
21:00−17юз23874 0.0 102253
11 марта, чт
чт1100:00−20юз23870 0.0 102133
03:00−20юз22880 0.0 102020
06:00−21ююз22930 0.0 101830
09:00−19ююз24940 0.0 1016127
12:00−13ююз378522 0.0 1014461
15:00−10ююз498349 0.0 1011611
18:00−11ююз378996 0.0 1008216
21:00−13ю369466 0.0 1007122
12 марта, пт
пт1200:00−15ююз249770 0.0 100680
03:00−16ю239882 0.0 100439
06:00−16ююв239999 0.0 100237
09:00−15юв259899 0.1 1001169
12:00−10ююв3794100 0.1 999483
15:00−8ююв4793100 0.2 998550
18:00−9ююв4995100 0.2 997413
21:00−10юв3896100 0.4 996269